カタログに戻る

STARLINK-31532

運用中通信VLEO
NORAD 59349·PAYLOAD·🇺🇸 United States

打ち上げ Mar 31, 2024 から Cape Canaveral Space Force Station

Loading…

次のパス (今後24時間)

TLE

最新Source: CelesTrak SupGP

元期: Sep 14, 2026, 21:18 UTC

1 59349C 24060B   26257.88798611  .00016871  00000+0  61129-3 0  2573
2 59349  42.9998 271.3707 0001513 266.6165 257.7694 15.27558181    16

AllMySatでSTARLINK-31532をリアルタイム追跡

Download on the App Store